GFSFLT2_700_rhum_027.txt.gz
RH
99 98 99 97 92 70 28 20 21 17 12 8 5 4 4 3 3 3 4 8 10 9 10 12 13 13 15
98 98 97 95 49 21 20 20 15 10 6 4 4 4 3 3 5 9 11 10 11 13 14 15 16 16 15
97 98 93 32 19 20 17 12 9 6 4 4 4 4 5 12 16 15 15 16 16 18 20 22 24 27 28
95 91 23 18 18 16 12 9 6 4 4 4 4 10 22 21 21 21 21 24 26 28 31 33 34 36 36
52 19 18 16 12 9 8 6 5 5 5 7 18 26 34 33 32 36 37 36 36 40 43 44 44 40 37
19 17 13 10 8 7 6 6 5 6 9 16 31 34 38 42 46 44 41 46 50 50 53 52 47 42 39
14 11 9 8 7 7 6 6 6 14 27 24 43 40 44 48 51 50 54 61 62 63 60 56 49 44 44
10 9 8 7 7 7 7 7 13 36 53 30 51 42 40 48 50 57 64 65 68 66 64 60 58 57 55
9 8 8 8 9 9 13 33 38 47 60 47 53 35 35 38 47 52 57 58 60 61 63 64 65 66 66
10 10 10 11 14 29 47 46 51 47 63 48 44 44 31 37 42 49 58 68 75 76 73 75 77 74 69
10 11 16 35 56 56 60 59 55 62 71 62 51 55 50 40 33 45 52 61 68 70 74 75 77 80 78
21 43 52 54 59 62 66 64 65 69 73 74 67 74 67 61 54 50 64 62 68 71 73 74 79 82 82
43 51 58 62 65 65 67 64 68 80 84 86 78 76 72 68 66 59 64 63 84 82 82 76 73 74 77
50 53 57 61 62 58 61 63 58 63 81 86 83 76 68 74 74 63 85 96 97 83 75 71 74 84 83
47 49 53 55 61 63 64 66 64 58 59 75 73 68 68 71 68 70 83 82 80 72 72 72 77 82 84
49 50 53 57 59 64 64 62 55 56 55 60 65 63 55 51 71 72 79 71 66 71 76 73 68 86 96
51 53 55 57 53 54 57 55 52 52 58 74 72 57 50 36 52 94 90 84 83 77 84 78 69 74 85

GFSFLT2_700_rhum_030.txt.gz
RH
99 99 100 99 99 98 98 96 97 84 58 26 21 21 18 14 10 8 7 6 5 4 4 6 7 8 8
99 98 100 98 97 95 96 95 96 82 20 20 18 15 10 8 6 6 5 5 4 5 8 9 10 10 12
98 98 100 100 97 96 96 94 32 18 15 12 11 9 7 6 5 5 5 6 9 11 11 12 13 16 20
97 97 97 98 96 76 26 18 17 14 10 9 8 7 6 5 6 8 12 15 16 17 18 22 26 29 29
100 100 93 42 21 18 17 15 13 10 8 7 7 7 8 10 15 21 24 26 28 31 32 32 34 37 40
68 22 20 19 16 14 12 10 9 8 8 7 10 13 20 27 35 37 40 39 40 42 42 45 48 48 45
20 17 15 13 12 10 9 8 8 8 8 9 28 29 38 45 47 45 42 45 46 48 50 49 49 44 43
13 10 9 8 8 8 8 8 9 16 34 30 50 46 48 50 45 45 49 53 53 53 50 50 48 46 45
5 6 6 7 8 8 10 15 32 40 60 52 56 47 42 42 44 47 52 56 58 60 65 66 64 62 59
5 5 6 7 10 21 33 37 47 50 65 51 52 46 27 36 42 52 57 60 58 60 64 69 71 68 63
7 11 18 25 29 36 45 51 56 61 68 56 43 49 48 44 41 50 54 53 54 54 58 66 74 73 70
21 25 31 38 44 50 55 56 59 65 68 62 54 61 60 56 48 47 56 58 58 60 68 70 72 77 83
32 37 42 48 51 52 53 56 59 69 78 84 78 71 68 60 56 46 52 50 64 68 72 70 68 66 66
38 42 45 49 50 51 55 59 60 68 78 79 70 62 59 62 62 48 55 55 66 85 77 71 74 78 82
43 44 46 49 53 54 54 54 54 55 52 61 62 64 70 72 57 56 53 50 68 68 67 69 78 92 95
49 46 48 52 54 55 55 58 56 53 53 62 70 72 73 60 50 44 45 66 73 71 76 68 62 79 90
57 54 53 56 53 53 60 59 54 57 63 75 79 74 52 29 44 62 66 78 77 78 80 70 63 76 87

GFSFLT2_700_rhum_033.txt.gz
RH
99 100 100 99 98 98 97 90 88 94 95 99 98 98 98 94 64 27 21 19 15 12 10 7 6 6 5
100 100 99 98 98 96 92 88 87 94 99 100 98 94 69 31 21 19 15 12 10 9 8 6 6 6 7
98 99 98 98 99 98 98 100 95 93 87 50 22 20 18 17 15 12 10 9 8 7 6 7 9 11 13
98 97 97 100 99 95 94 82 37 22 20 18 16 13 11 10 10 9 8 7 7 8 12 15 17 19 24
99 98 96 93 93 62 29 20 16 14 12 11 10 9 9 8 8 8 8 12 16 20 23 28 32 33 33
94 95 79 24 21 16 11 7 5 7 5 7 7 7 7 11 20 25 29 33 36 39 40 37 35 34 30
41 21 16 9 4 4 4 5 5 7 6 7 12 16 28 37 42 42 39 40 40 39 37 38 39 40 41
10 4 2 2 3 4 4 6 8 16 23 24 33 36 40 42 40 36 41 45 45 44 42 41 42 43 46
2 3 4 5 6 9 14 20 25 32 42 37 43 40 40 36 37 43 48 49 52 56 57 56 54 53 51
5 8 10 14 18 23 29 34 36 40 43 40 45 42 31 36 38 42 43 50 54 52 53 56 58 56 50
13 17 20 24 28 32 35 37 40 44 50 45 49 50 43 34 34 38 41 46 45 38 38 42 47 56 65
21 24 28 30 32 34 37 40 44 52 59 58 51 52 42 39 37 42 52 55 46 40 31 33 46 64 68
26 30 33 35 36 38 42 45 49 55 58 61 57 54 50 47 47 49 55 40 40 42 35 44 66 70 63
33 38 42 42 43 43 46 48 46 50 56 60 58 57 53 54 56 59 49 34 42 45 55 71 76 76 78
43 46 49 49 48 49 49 46 46 53 54 56 59 62 61 64 66 51 32 41 49 46 63 66 69 90 90
49 54 56 56 54 54 52 49 50 57 56 54 56 58 63 67 61 29 44 46 42 46 72 77 71 72 75
58 60 61 62 61 58 56 54 56 61 59 60 63 73 67 61 45 39 60 52 42 49 81 91 76 70 75

GFSFLT2_700_rhum_036.txt.gz
RH
100 99 98 99 99 99 98 99 100 100 100 100 94 87 85 85 84 86 86 79 66 51 28 21 20 18 15
99 99 98 96 99 99 99 98 98 96 97 91 86 86 86 60 31 24 23 22 21 20 17 15 13 12 10
97 99 99 99 99 100 100 99 96 94 95 84 62 30 28 26 21 18 17 16 14 12 11 10 9 9 8
100 100 100 98 96 96 95 90 84 54 31 23 18 15 12 9 8 8 8 8 8 8 8 8 8 9 12
100 100 95 92 90 84 60 28 20 12 5 4 2 3 4 5 5 6 6 6 8 10 14 19 24 28 30
98 94 86 53 23 19 7 2 2 3 3 4 4 5 6 8 12 16 22 28 32 32 33 34 31 28 28
43 23 14 6 2 2 3 4 6 8 10 12 13 18 21 28 33 35 35 34 33 35 35 34 32 31 31
10 3 2 3 5 8 10 12 16 19 19 22 27 31 34 38 37 36 32 31 36 40 39 36 34 34 35
2 3 7 10 13 16 18 21 24 29 28 25 32 29 36 40 39 37 41 45 49 47 46 45 44 45 42
5 9 13 17 20 23 25 27 28 31 33 30 36 33 28 38 42 41 42 41 43 46 49 51 46 39 32
11 16 19 22 27 29 30 31 33 34 34 31 35 35 30 27 32 37 37 40 43 49 54 44 34 37 33
18 21 24 28 31 35 36 37 36 38 40 36 34 38 37 34 32 34 43 46 48 47 34 28 31 33 39
24 28 33 36 41 44 44 43 42 43 42 41 43 44 45 41 37 39 48 46 39 27 29 31 30 36 58
30 36 41 45 50 51 51 49 47 47 46 49 53 50 48 48 44 44 55 49 32 33 44 33 32 53 72
38 47 50 54 57 56 56 55 53 51 50 54 61 58 57 54 50 58 58 53 37 39 44 27 35 60 80
50 51 55 58 60 61 61 61 59 57 54 55 59 62 62 55 61 51 56 52 30 31 42 29 26 47 76
55 57 62 64 66 68 69 69 67 64 61 62 66 72 66 58 53 55 64 55 32 29 55 49 34 45 76

GFSFLT2_700_rhum_039.txt.gz
RH
100 99 100 98 99 90 96 99 99 100 99 98 99 98 94 96 88 80 76 75 64 47 34 30 28 27 23
100 98 99 100 98 99 98 98 100 98 97 95 94 90 87 81 78 70 52 36 30 27 24 22 20 19 18
99 97 99 98 99 99 98 97 96 94 89 87 84 72 56 34 25 21 16 13 11 10 8 9 10 10 10
94 98 99 98 98 96 90 94 92 77 56 32 20 17 9 4 2 2 2 2 3 3 4 4 5 6 7
98 100 98 97 99 93 78 55 26 17 8 3 2 3 3 4 4 4 4 5 6 9 12 16 21 26 27
98 95 95 68 26 19 12 4 2 3 4 6 8 9 11 13 13 15 17 22 25 27 28 29 27 22 20
62 25 20 12 5 2 3 6 8 10 12 15 16 19 22 25 25 25 26 27 29 29 26 25 27 26 26
16 8 3 2 3 7 10 14 16 18 17 22 23 27 30 31 30 31 33 34 32 31 31 31 29 26 26
3 2 2 5 10 15 18 21 23 23 22 22 24 27 32 36 36 38 39 36 35 37 37 36 34 36 38
2 4 8 13 17 20 22 25 28 30 30 30 31 30 30 36 38 40 42 41 41 42 42 44 45 46 46
4 8 14 18 21 24 28 32 35 36 36 34 35 32 29 29 36 38 39 40 41 43 46 48 49 42 27
7 13 19 24 29 31 34 38 40 41 42 39 38 36 32 32 32 38 42 40 38 49 54 46 31 27 33
11 19 26 31 35 36 40 43 46 47 46 45 44 42 39 37 35 40 44 43 44 52 51 41 30 39 38
19 27 32 37 42 44 49 50 52 57 55 53 51 48 47 46 44 46 53 48 49 51 49 44 28 42 39
27 33 38 48 52 56 58 58 56 58 62 61 58 56 54 54 50 57 58 59 56 50 53 47 25 34 43
35 42 54 57 59 67 66 64 63 67 67 69 67 65 63 63 67 67 66 63 55 47 53 41 20 27 47
44 55 53 55 67 70 71 69 70 72 77 79 81 79 70 64 67 73 72 65 55 48 52 38 27 34 44

GFSFLT2_700_rhum_042.txt.gz
RH
99 100 100 99 92 100 98 98 100 100 99 100 96 98 99 99 98 96 92 87 86 81 76 68 55 42 35
98 97 92 99 89 96 98 99 99 99 99 100 97 96 97 96 92 85 82 76 57 38 26 20 18 17 16
94 98 90 95 98 98 96 98 98 99 100 99 98 92 92 78 54 29 14 6 2 2 1 2 2 2 2
95 94 100 100 99 99 97 97 97 100 100 94 64 32 16 6 2 2 3 3 4 4 3 3 3 3 3
99 100 100 97 96 97 96 93 91 64 32 14 6 2 3 5 6 8 9 10 11 11 11 12 15 18 20
98 94 94 92 92 67 40 25 14 7 2 3 5 7 10 13 13 14 15 16 17 18 19 20 23 24 24
73 44 28 24 19 12 6 3 2 4 7 10 12 15 16 18 18 17 18 20 21 22 23 25 27 25 23
20 15 8 4 3 2 2 5 8 12 14 18 19 21 23 23 24 25 26 27 27 29 31 30 27 26 25
3 2 2 2 2 5 8 13 17 20 22 24 26 30 31 31 30 30 29 29 32 32 30 29 30 30 29
2 2 2 3 6 11 16 20 25 29 31 31 32 32 34 35 33 32 32 31 34 35 32 33 34 32 34
2 3 4 6 11 18 23 28 32 34 35 34 38 39 38 39 36 36 38 43 44 43 41 40 38 37 39
3 4 6 10 17 24 29 35 38 43 47 43 41 43 39 39 41 40 42 45 45 46 46 45 43 47 48
4 6 9 17 25 32 37 43 49 53 53 50 46 46 44 44 43 46 42 46 47 49 51 50 47 47 49
7 10 15 23 31 37 47 54 55 64 62 59 54 51 50 52 49 49 54 48 53 57 55 54 53 46 48
13 18 24 32 38 46 55 56 58 67 76 78 70 64 60 60 56 58 60 58 62 64 64 61 56 48 51
23 28 33 39 50 56 56 63 68 72 74 79 78 74 72 68 72 68 66 67 73 74 73 65 52 45 49
30 37 46 49 51 67 74 72 72 73 77 81 83 83 72 66 72 80 72 78 80 74 70 63 46 43 43